White Mountain, AK

6:41 PM AKDT on August 16, 2017 (GMT -0800)
White Mountain

Weather History for PAWM - April, 2014

Change the Weather History Date:

Thursday, April 10, 2014

  Actual Average (PAOM) Record (PAOM)
Temperature  
Mean Temperature 16 °F -  
Max Temperature 25 °F 22 °F 50 °F (1940)
Min Temperature 6 °F 7 °F -24 °F (1920)
Degree Days  
Heating Degree Days 50    
Moisture  
Dew Point 3 °F    
Average Humidity 62    
Maximum Humidity 84    
Minimum Humidity 38    
Precipitation  
Precipitation 0.00 in - - ()
Sea Level Pressure  
Sea Level Pressure 30.05 in    
Wind  
Wind Speed 6 mph (North)    
Max Wind Speed 10 mph    
Max Gust Speed -    
Visibility 10 miles    
Events      
Averages and records for this station are not official NWS values.
T = Trace of Precipitation, MM = Missing Value Source: NWS Daily Summary

Daily Weather History Graph

Daily Weather History Graph

Search for Another Location

Airport or City:

Trip Planner

Search our weather history database for the weather conditions in past years. The results will help you decide how hot, cold, wet, or windy it might be!

Date:

Astronomy

Apr. 10, 2014 Rise Set
Actual Time 7:36 AM AKDT 10:14 PM AKDT
Civil Twilight 6:42 AM AKDT 11:09 PM AKDT
Nautical Twilight 5:26 AM AKDT 12:27 AM AKDT
Astronomical Twilight 3:27 AM AKDT 2:22 AM AKDT
Moon 4:46 PM AKDT (4/10) 6:37 AM AKDT (4/10)
Length of Visible Light 16h 27m
Length of Day
14h 38m
Waxing Gibbous, 81% of the Moon is Illuminated
Apr 10
Waxing Gibbous
Apr 14
Full
Apr 21
Last Quarter
Apr 28
New
May 6
First Quarter

Hourly Weather History & Observations

Time (AKDT) Temp. Windchill Dew Point Humidity Pressure Visibility Wind Dir Wind Speed Gust Speed Precip Events Conditions
12:58 AM 12.0 °F 2.7 °F 7.0 °F 80% 30.04 in 10.0 mi North 5.8 mph - N/A   Clear
1:58 AM 9.0 °F -3.2 °F 3.9 °F 80% 30.04 in 10.0 mi North 8.1 mph - N/A   Clear
2:58 AM 9.0 °F -0.9 °F 3.9 °F 80% 30.04 in 10.0 mi NNE 5.8 mph - N/A   Clear
3:58 AM 8.1 °F -2.0 °F 3.0 °F 80% 30.03 in 10.0 mi North 5.8 mph - N/A   Clear
4:58 AM 7.0 °F -4.5 °F 3.0 °F 84% 30.03 in 10.0 mi North 6.9 mph - N/A   Clear
5:58 AM 6.1 °F -5.6 °F 1.9 °F 83% 30.03 in 10.0 mi North 6.9 mph - N/A   Clear
6:58 AM 6.1 °F -7.8 °F 1.0 °F 80% 30.02 in 10.0 mi North 9.2 mph - N/A   Clear
7:58 AM 7.0 °F -6.6 °F 1.9 °F 80% 30.03 in 9.0 mi North 9.2 mph - N/A   Clear
8:58 AM 7.0 °F 0.1 °F 1.9 °F 80% 30.03 in 9.0 mi NNW 3.5 mph - N/A   Clear
9:58 AM 10.9 °F 2.9 °F 3.9 °F 73% 30.04 in 9.0 mi North 4.6 mph - N/A   Mostly Cloudy
10:58 AM 14.0 °F 8.2 °F 5.0 °F 67% 30.04 in 9.0 mi North 3.5 mph - N/A   Clear
11:58 AM 18.0 °F - 5.0 °F 57% 30.04 in 9.0 mi Calm Calm - N/A   Partly Cloudy
12:58 PM 19.9 °F - 3.9 °F 50% 30.05 in 9.0 mi Calm Calm - N/A   Clear
1:58 PM 23.0 °F 18.4 °F 1.0 °F 39% 30.05 in 9.0 mi Variable 3.5 mph - N/A   Clear
2:58 PM 23.0 °F 15.8 °F 1.9 °F 40% 30.06 in 9.0 mi South 5.8 mph - N/A   Partly Cloudy
3:58 PM 21.9 °F 15.7 °F 1.0 °F 40% 30.06 in 9.0 mi South 4.6 mph - N/A   Partly Cloudy
4:58 PM 23.0 °F 18.4 °F 1.9 °F 40% 30.05 in 9.0 mi SSW 3.5 mph - N/A   Scattered Clouds
5:58 PM 25.0 °F 19.3 °F 3.0 °F 39% 30.06 in 9.0 mi SSW 4.6 mph - N/A   Mostly Cloudy
6:58 PM 24.1 °F 18.2 °F 1.9 °F 38% 30.05 in 9.0 mi SW 4.6 mph - N/A   Clear
7:58 PM 23.0 °F 12.4 °F 3.9 °F 44% 30.06 in 9.0 mi NNW 10.4 mph - N/A   Partly Cloudy
8:58 PM 21.0 °F 12.4 °F 3.9 °F 48% 30.07 in 10.0 mi North 6.9 mph - N/A   Clear
9:58 PM 17.1 °F 5.0 °F 3.9 °F 56% 30.08 in 10.0 mi North 10.4 mph - N/A   Clear
10:58 PM 15.1 °F 3.3 °F 3.9 °F 61% 30.10 in 10.0 mi North 9.2 mph - N/A   Clear
11:58 PM 14.0 °F 2.9 °F 3.0 °F 62% 30.12 in 10.0 mi North 8.1 mph - N/A   Clear